Portada
METAR-TAF:

METAR-TAF

Aeroports :

Tulcán, Equador

latitud: 00-48-34N, longitud: 077-42-29W, altitud: 2941 m

Observació

L'informe es va fer fa 1 hora i 6 minuts, a les 15:00 UTC
Vent 2 kt del Oest/Sud-Oest
Temperatura 15°C
Humitat 72%
Pressió 1034 hPa
Visibilitat 10 km o més
Núvols disperses a una alçada de 2000 ft
Núvols disperses a una alçada de 30000 ft

METAR: SETU 061500Z 24002KT 9999 SCT020 SCT300 15/10 Q1034

Hora: 11:06 (16:06 UTC)


TAF: manca

Observacions i pronòstics meteorològics de més de 4000 aeroports (METAR i TAF).

Les estacions disponibles són els punts grocs i vermells al mapa.

Posi el ratolí al punt desitjat per veure el nom de l'estació.

Feu clic per veure les observacions i els pronòstics meteorològics.

Per canviar el mapa: feu clic els botons verds amb una creu de color negre per apropar; al botó verd amb un guió per allunyar la imatge; o en les fletxes verdes per a mapes adjacents.


METAR-TAF: